Home   Weather   Santa Monica   Past weeks
Flag for USA

Past Weather in Santa Monica, California, USA — Yesterday and Last 2 Weeks

Now
66 °F

Clear.


Feels Like: 66 °F
Forecast: 79 / 65 °F
Wind: 3 mph from East

Location: Santa Monica Municipal Airport

Current Time: Sep 22, 2019 at 4:08:48 am

Latest Report: Sep 22, 2019 at 2:51 am


Visibility: 10 mi

Pressure: 29.83 "Hg

Humidity: 84%

Dew Point: 61 °F

Location of Santa MonicaLocation

Past Weather in Santa Monica — Graph

°F

Santa Monica Temperature Yesterday

Maximum temperature yesterday: 77 °F (at 1:51 pm)
Minimum temperature yesterday: 62 °F (at 5:51 am)
Average temperature yesterday: 70 °F

High & Low Weather Summary for the Past Weeks

 TemperatureHumidityPressure
High83 °F (Sep 14, 1:51 pm)100% (Sep 15, 2:51 am)30.01 "Hg (Sep 15, 2:51 am)
Low62 °F (Sep 18, 5:51 am)44% (Sep 14, 1:51 pm)29.80 "Hg (Sep 21, 4:51 pm)
Average70 °F80%29.89 "Hg
* Reported Sep 7 2:51 am — Sep 22 2:51 am, Santa Monica. Weather by CustomWeather, © 2019

Note: Actual official high and low records may vary slightly from our data, if they occured in-between our weather recording intervals... More about our weather records

Advertising

Santa Monica Weather History for the Previous 24 Hours

Scroll right to see more
 ConditionsComfort  
Time TempWeatherWind HumidityBarometerVisibility
2:51 am
Sun, Sep 22
66 °FClear.3 mph84%29.83 "Hg10 mi
1:51 am68 °FClear.5 mph84%29.85 "Hg10 mi
12:51 am68 °FClear.3 mph84%29.85 "Hg10 mi
11:51 pm
Sat, Sep 21
68 °FClear.3 mph84%29.85 "Hg10 mi
10:51 pm68 °FClear.3 mph84%29.85 "Hg10 mi
9:51 pm68 °FClear.3 mph87%29.83 "Hg10 mi
8:51 pm69 °FClear.5 mph84%29.83 "Hg10 mi
7:51 pm71 °FClear.No wind81%29.81 "Hg10 mi
6:51 pm71 °FSunny.5 mph84%29.81 "Hg10 mi
5:51 pm73 °FSunny.9 mph79%29.80 "Hg10 mi
4:51 pm76 °FSunny.8 mph62%29.80 "Hg10 mi
3:51 pm77 °FSunny.8 mph58%29.80 "Hg10 mi
2:51 pm77 °FSunny.8 mph58%29.82 "Hg10 mi
1:51 pm77 °FSunny.8 mph60%29.83 "Hg10 mi
12:51 pm76 °FSunny.7 mph64%29.86 "Hg10 mi
11:51 am76 °FSunny.7 mph64%29.88 "Hg10 mi
10:51 am75 °FSunny.6 mph66%29.90 "Hg10 mi
9:51 am73 °FSunny.3 mph66%29.91 "Hg10 mi
8:51 am70 °FSunny.No wind73%29.91 "Hg10 mi
7:51 am66 °FSunny.No wind84%29.90 "Hg10 mi
6:51 am62 °FSunny.No wind93%29.89 "Hg10 mi
5:51 am62 °FClear.No wind90%29.87 "Hg10 mi
4:51 am63 °FClear.No wind90%29.86 "Hg10 mi
Weather by CustomWeather, © 2019

See weather overview